Flag for Germany Weather past 2 weeks in Cologne, North Rhine-Westphalia, Germany

Now
52 °F

Fog.


Feels Like: 51 °F
Forecast: 58 / 75 °F
Wind: 3 mph from South

Location: Koeln / Bonn

Current Time: Sep 17, 2014 at 6:01:23 AM

Latest Report: Sep 17, 2014 at 5:20 AM


Visibility: N/A

Pressure: 29.95 "Hg

Humidity: 94%

Dew point: 50 °F

Location of CologneLocation

Historic Weather in Cologne — Graph

°F

Cologne temperature yesterday

Maximum temperature yesterday: 75 °F (at 3:50 PM)
Minimum temperature yesterday: 55 °F (at 4:50 AM)
Average temperature yesterday: 65 °F

Past Weeks' High & Low Weather Summary

 TemperatureHumidityPressure
High77 °F (Sep 5, 3:50 PM)100% (Sep 2, 5:50 AM)30.24 "Hg (Sep 2, 5:50 AM)
Low45 °F (Sep 12, 3:20 AM)47% (Sep 5, 3:50 PM)29.89 "Hg (Sep 6, 3:50 PM)
Average61 °F80%30.07 "Hg
* Reported Sep 2 4:20 AM — Sep 17 4:50 AM, Cologne, Weather by CustomWeather, © 2014

Note: Actual official high and low records may vary slightly from our data, if they occured in-between our weather recording intervals... More about our weather records

Advertising

Cologne weather history for previous 24 hours

 ConditionsComfort  
Time TempWeatherWind HumidityBarometerVisibility
4:50 AM
Sep 17
55 °FClear.3 mph94%29.95 "Hg10 mi
4:20 AM54 °FFog.3 mph94%29.95 "HgN/A
3:50 AM55 °FFog.2 mph94%29.95 "HgN/A
3:20 AM57 °FClear.2 mph88%29.95 "Hg10 mi
2:50 AM55 °FClear.3 mph88%29.95 "Hg10 mi
2:20 AM59 °FClear.3 mph88%29.95 "Hg10 mi
1:50 AM61 °FClear.6 mph83%29.95 "Hg10 mi
1:20 AM61 °FClear.6 mph83%29.95 "Hg10 mi
12:20 AM61 °FClear.6 mph83%29.95 "Hg10 mi
11:50 PM
Sep 16
63 °FClear.5 mph77%29.95 "Hg10 mi
11:20 PM63 °FClear.6 mph83%29.95 "Hg10 mi
10:50 PM63 °FClear.5 mph77%29.95 "Hg10 mi
10:20 PM64 °FClear.7 mph78%29.95 "Hg10 mi
9:50 PM64 °FClear.7 mph78%29.95 "Hg10 mi
9:20 PM66 °FClear.6 mph73%29.95 "Hg10 mi
8:50 PM66 °FClear.7 mph73%29.95 "Hg10 mi
8:20 PM66 °FSunny.6 mph73%29.95 "Hg10 mi
7:50 PM68 °FSunny.6 mph73%29.95 "Hg10 mi
7:20 PM70 °FPassing clouds.5 mph69%29.95 "HgN/A
6:50 PM72 °FPassing clouds.3 mph61%29.95 "HgN/A
6:20 PM73 °FScattered clouds.6 mph57%29.95 "HgN/A
5:50 PM75 °FScattered clouds.6 mph50%29.95 "HgN/A
5:20 PM73 °FScattered clouds.7 mph57%29.95 "HgN/A
4:50 PM73 °FScattered clouds.8 mph57%29.95 "HgN/A
4:20 PM73 °FScattered clouds.9 mph53%29.95 "HgN/A
3:50 PM75 °FScattered clouds.9 mph57%29.95 "HgN/A
3:20 PM73 °FScattered clouds.12 mph57%29.95 "HgN/A
2:50 PM73 °FScattered clouds.9 mph61%29.95 "HgN/A
2:20 PM73 °FScattered clouds.8 mph61%29.98 "HgN/A
1:50 PM73 °FScattered clouds.9 mph61%29.98 "HgN/A
1:20 PM72 °FScattered clouds.7 mph65%29.98 "HgN/A
12:50 PM70 °FBroken clouds.7 mph69%29.98 "HgN/A
12:20 PM70 °FScattered clouds.6 mph73%29.98 "HgN/A
11:50 AM70 °FScattered clouds.8 mph69%29.98 "HgN/A
11:20 AM70 °FPassing clouds.6 mph69%30.01 "HgN/A
10:50 AM68 °FPassing clouds.6 mph73%30.01 "HgN/A
10:20 AM66 °FSunny.6 mph78%30.01 "Hg10 mi
9:50 AM64 °FScattered clouds.6 mph83%30.01 "HgN/A
9:20 AM63 °FScattered clouds.3 mph88%30.01 "HgN/A
8:50 AM61 °FBroken clouds.No wind94%30.01 "HgN/A
8:20 AM57 °FScattered clouds.2 mph100%29.98 "HgN/A
7:50 AM57 °FPassing clouds.2 mph94%29.98 "HgN/A
7:20 AM57 °FPassing clouds.2 mph94%29.98 "Hg6 mi
6:50 AM57 °FPassing clouds.2 mph94%29.98 "Hg6 mi
6:20 AM57 °FClear.2 mph94%29.98 "Hg5 mi
Weather by CustomWeather, © 2014

See weather overviewHow to use our weather pages